When you browse on this site, cookies collect data to enhance your experience and personalize the content and advertising you see.
Visit our Privacy Policy to learn more. By continuing to use the site, you agree to this use of cookies and data.
  • Em Portugal
  • Lista de países
  • Para 7 dias
  • Temperatura da água
  • Mapas de satélite
  • Mapa do tempo
  • Widgets de tempo
  • user-avatar
    Iniciar Sessão

    Previsão horária em Nagano

    Hoje, 20 Janeiro, Domingo

    Tempo Temperatura Precipitação Vento Pressão Humidade
    00:00 -1°C° 0 mm 1 m/s 693 mmHg 69%
    01:00 -1°C° 0 mm 1 m/s 692 mmHg 69%
    02:00 -1°C° 0 mm 1 m/s 692 mmHg 70%
    03:00 -3°C° 0 mm 2 m/s 691 mmHg 70%
    04:00 -2°C° 0 mm 2 m/s 690 mmHg 73%
    05:00 -2°C° 0 mm 2 m/s 690 mmHg 75%
    06:00 -2°C° 0 mm 2 m/s 689 mmHg 78%
    07:00 -1°C° 0.2 mm 2 m/s 689 mmHg 76%
    08:00 +1°C° 0.2 mm 2 m/s 688 mmHg 75%
    09:00 +1°C° 0 mm 3 m/s 688 mmHg 73%
    10:00 +3°C° 0.3 mm 2 m/s 687 mmHg 71%
    11:00 +4°C° 0.3 mm 2 m/s 687 mmHg 70%
    12:00 +5°C° 0.3 mm 2 m/s 687 mmHg 68%
    13:00 +6°C° 0.3 mm 2 m/s 686 mmHg 68%
    14:00 +6°C° 0.3 mm 2 m/s 686 mmHg 68%
    15:00 +5°C° 0 mm 2 m/s 686 mmHg 69%
    16:00 +4°C° 0.2 mm 2 m/s 686 mmHg 71%
    17:00 +3°C° 0.2 mm 2 m/s 686 mmHg 72%
    18:00 +2°C° 0.2 mm 2 m/s 686 mmHg 74%
    19:00 +1°C° 0.2 mm 2 m/s 686 mmHg 72%
    20:00 0°C° 0.2 mm 3 m/s 687 mmHg 71%
    21:00 -1°C° 0.2 mm 3 m/s 687 mmHg 70%
    22:00 -2°C° 0.1 mm 3 m/s 687 mmHg 70%
    23:00 -4°C° 0.1 mm 3 m/s 688 mmHg 70%

    Amanhã, 21 Janeiro, Segunda-feira

    Tempo Temperatura Precipitação Vento Pressão Humidade
    00:00 -4°C° 0.1 mm 2 m/s 688 mmHg 70%
    01:00 -4°C° 0.1 mm 2 m/s 688 mmHg 69%
    02:00 -5°C° 0.1 mm 2 m/s 688 mmHg 68%
    03:00 -5°C° 0.1 mm 2 m/s 689 mmHg 67%
    04:00 -6°C° 0 mm 2 m/s 689 mmHg 65%
    05:00 -6°C° 0 mm 2 m/s 689 mmHg 63%
    06:00 -6°C° 0 mm 2 m/s 689 mmHg 61%
    07:00 -6°C° 0 mm 2 m/s 689 mmHg 58%
    08:00 -5°C° 0 mm 2 m/s 690 mmHg 54%
    09:00 -4°C° 0 mm 2 m/s 690 mmHg 50%
    10:00 -3°C° 0 mm 2 m/s 690 mmHg 47%
    11:00 -1°C° 0 mm 2 m/s 690 mmHg 43%
    12:00 0°C° 0 mm 3 m/s 690 mmHg 40%
    13:00 +1°C° 0 mm 2 m/s 690 mmHg 41%
    14:00 +2°C° 0 mm 2 m/s 689 mmHg 43%
    15:00 +2°C° 0 mm 2 m/s 689 mmHg 44%
    16:00 +1°C° 0 mm 2 m/s 689 mmHg 50%
    17:00 -1°C° 0 mm 2 m/s 688 mmHg 56%
    18:00 -2°C° 0 mm 2 m/s 688 mmHg 62%
    19:00 -2°C° 0.1 mm 2 m/s 688 mmHg 63%
    20:00 -2°C° 0.1 mm 2 m/s 688 mmHg 63%
    21:00 -2°C° 0.1 mm 2 m/s 688 mmHg 64%
    22:00 -2°C° 0.1 mm 2 m/s 688 mmHg 64%
    23:00 -2°C° 0.1 mm 2 m/s 687 mmHg 64%

    Depois de amanhã, 22 Janeiro, Terça-feira

    Tempo Temperatura Precipitação Vento Pressão Humidade
    00:00 -1°C° 0.1 mm 2 m/s 687 mmHg 64%
    01:00 -1°C° 0.2 mm 2 m/s 687 mmHg 65%
    02:00 -1°C° 0.2 mm 2 m/s 687 mmHg 66%
    03:00 -1°C° 0.2 mm 2 m/s 687 mmHg 67%
    04:00 -1°C° 0.3 mm 2 m/s 687 mmHg 70%
    05:00 +1°C° 0.3 mm 1 m/s 687 mmHg 73%
    06:00 +1°C° 0.3 mm 1 m/s 687 mmHg 76%
    07:00 +1°C° 0.4 mm 1 m/s 688 mmHg 75%
    08:00 +1°C° 0.4 mm 1 m/s 688 mmHg 73%
    09:00 +1°C° 0.4 mm 1 m/s 689 mmHg 72%
    10:00 +1°C° 0.1 mm 2 m/s 689 mmHg 65%
    11:00 +1°C° 0.1 mm 2 m/s 689 mmHg 59%
    12:00 +2°C° 0.1 mm 2 m/s 690 mmHg 52%
    13:00 +2°C° 0 mm 2 m/s 690 mmHg 51%
    14:00 +2°C° 0 mm 2 m/s 690 mmHg 50%
    15:00 +2°C° 0 mm 2 m/s 690 mmHg 49%
    16:00 +1°C° 0 mm 2 m/s 690 mmHg 56%
    17:00 0°C° 0 mm 1 m/s 690 mmHg 64%
    18:00 -2°C° 0 mm 1 m/s 690 mmHg 71%
    19:00 -2°C° 0 mm 1 m/s 690 mmHg 72%
    20:00 -3°C° 0 mm 1 m/s 690 mmHg 72%
    21:00 -3°C° 0 mm 1 m/s 690 mmHg 73%
    22:00 -3°C° 0 mm 1 m/s 690 mmHg 72%
    23:00 -3°C° 0 mm 1 m/s 690 mmHg 71%

    23 Janeiro, Quarta-feira

    Tempo Temperatura Precipitação Vento Pressão Humidade
    00:00 -3°C° 0 mm 1 m/s 690 mmHg 69%
    01:00 -3°C° 0 mm 1 m/s 690 mmHg 68%
    02:00 -3°C° 0 mm 1 m/s 690 mmHg 66%
    03:00 -3°C° 0 mm 1 m/s 689 mmHg 64%
    04:00 -3°C° 0 mm 1 m/s 689 mmHg 64%
    05:00 -2°C° 0 mm 1 m/s 689 mmHg 63%
    06:00 -2°C° 0 mm 1 m/s 689 mmHg 63%
    07:00 -3°C° 0 mm 2 m/s 689 mmHg 62%
    08:00 -1°C° 0 mm 2 m/s 689 mmHg 60%
    09:00 0°C° 0 mm 3 m/s 689 mmHg 59%
    10:00 +1°C° 0.1 mm 3 m/s 688 mmHg 56%
    11:00 +3°C° 0.1 mm 4 m/s 688 mmHg 53%
    12:00 +4°C° 0.1 mm 4 m/s 687 mmHg 51%
    13:00 +4°C° 0.1 mm 4 m/s 687 mmHg 52%
    14:00 +4°C° 0.1 mm 3 m/s 687 mmHg 54%
    15:00 +4°C° 0.1 mm 3 m/s 686 mmHg 55%
    16:00 +3°C° 0.3 mm 3 m/s 686 mmHg 61%
    17:00 +2°C° 0.3 mm 3 m/s 687 mmHg 66%
    18:00 +2°C° 0.3 mm 2 m/s 687 mmHg 72%
    19:00 +1°C° 0.3 mm 2 m/s 687 mmHg 73%
    20:00 -1°C° 0.3 mm 2 m/s 687 mmHg 74%
    21:00 -2°C° 0.3 mm 2 m/s 688 mmHg 75%
    22:00 -3°C° 0.1 mm 2 m/s 688 mmHg 73%
    23:00 -3°C° 0.1 mm 2 m/s 688 mmHg 70%

    24 Janeiro, Quinta-feira

    Tempo Temperatura Precipitação Vento Pressão Humidade
    00:00 -4°C° 0.1 mm 2 m/s 688 mmHg 68%
    01:00 -4°C° 0 mm 2 m/s 689 mmHg 66%
    02:00 -5°C° 0 mm 2 m/s 689 mmHg 64%
    03:00 -5°C° 0 mm 2 m/s 689 mmHg 62%
    04:00 -6°C° 0 mm 2 m/s 689 mmHg 61%
    05:00 -6°C° 0 mm 2 m/s 690 mmHg 60%
    06:00 -6°C° 0 mm 2 m/s 690 mmHg 59%
    07:00 -5°C° 0 mm 2 m/s 690 mmHg 57%
    08:00 -5°C° 0 mm 2 m/s 691 mmHg 56%
    09:00 -5°C° 0 mm 3 m/s 692 mmHg 54%
    10:00 -5°C° 0 mm 3 m/s 692 mmHg 52%
    11:00 -4°C° 0 mm 3 m/s 692 mmHg 50%
    12:00 -2°C° 0 mm 3 m/s 692 mmHg 47%
    13:00 -2°C° 0 mm 3 m/s 692 mmHg 48%
    14:00 -2°C° 0 mm 3 m/s 692 mmHg 49%
    15:00 -2°C° 0 mm 3 m/s 693 mmHg 50%
    16:00 -4°C° 0 mm 2 m/s 693 mmHg 56%
    17:00 -5°C° 0 mm 2 m/s 693 mmHg 62%
    18:00 -4°C° 0 mm 1 m/s 693 mmHg 68%
    19:00 -6°C° 0 mm 1 m/s 694 mmHg 70%
    20:00 -6°C° 0 mm 1 m/s 694 mmHg 71%
    21:00 -6°C° 0 mm 1 m/s 694 mmHg 72%
    22:00 -7°C° 0 mm 1 m/s 694 mmHg 71%
    23:00 -7°C° 0 mm 1 m/s 694 mmHg 70%

    25 Janeiro, Sexta-feira

    Tempo Temperatura Precipitação Vento Pressão Humidade
    00:00 -7°C° 0 mm 1 m/s 694 mmHg 69%
    01:00 -7°C° 0 mm 1 m/s 693 mmHg 69%
    02:00 -7°C° 0 mm 1 m/s 693 mmHg 68%
    03:00 -7°C° 0 mm 1 m/s 693 mmHg 68%
    04:00 -7°C° 0 mm 1 m/s 693 mmHg 68%
    05:00 -8°C° 0 mm 1 m/s 693 mmHg 68%
    06:00 -8°C° 0 mm 1 m/s 693 mmHg 68%
    07:00 -6°C° 0 mm 1 m/s 693 mmHg 63%
    08:00 -4°C° 0 mm 1 m/s 694 mmHg 59%
    09:00 -3°C° 0 mm 1 m/s 694 mmHg 55%
    10:00 -1°C° 0 mm 1 m/s 694 mmHg 50%
    11:00 +1°C° 0 mm 1 m/s 694 mmHg 45%
    12:00 +3°C° 0 mm 1 m/s 693 mmHg 40%
    13:00 +3°C° 0 mm 1 m/s 693 mmHg 42%
    14:00 +3°C° 0 mm 1 m/s 692 mmHg 44%
    15:00 +3°C° 0 mm 1 m/s 692 mmHg 45%
    16:00 +1°C° 0 mm 1 m/s 691 mmHg 53%
    17:00 -1°C° 0 mm 1 m/s 691 mmHg 61%
    18:00 -2°C° 0 mm 1 m/s 691 mmHg 69%
    19:00 -3°C° 0 mm 1 m/s 691 mmHg 69%
    20:00 -3°C° 0 mm 1 m/s 690 mmHg 68%
    21:00 -3°C° 0 mm 1 m/s 690 mmHg 68%
    22:00 -2°C° 0.1 mm 1 m/s 689 mmHg 69%
    23:00 -2°C° 0.1 mm 1 m/s 689 mmHg 69%
    Mostrar mais